WA6MHA-11 Weather Reports


Display with metric or nautical units.
time (UTC)temp
F
wind
direction
speed
MPH
gust
MPH
rain 1hr
in
rain 24hr
in
rain mn
in
humidity
%
barometer
mb
20211026152249 49 112 0.0 3.0 0.00 0.00 0.00 68 1020.9
20211026151847 48 75 3.0 3.0 0.00 0.00 0.00 68 1020.8
20211026151449 47 112 3.0 4.0 0.00 0.00 0.00 68 1020.7
20211026151044 46 90 1.0 3.0 0.00 0.00 0.00 68 1020.6
20211026150643 46 67 1.0 1.0 0.00 0.00 0.00 67 1020.5
20211026145840 45 112 0.0 0.0 0.00 0.00 0.00 67 1020.4
20211026145439 44 112 0.0 1.0 0.00 0.00 0.00 67 1020.4
20211026145038 44 85 1.0 1.0 0.00 0.00 0.00 67 1020.3
20211026144236 43 112 0.0 0.0 0.00 0.00 0.00 66 1020.3
20211026143835 43 73 1.0 3.0 0.00 0.00 0.00 66 1020.3
20211026143433 42 84 1.0 2.0 0.00 0.00 0.00 66 1020.4
20211026143031 42 270 0.0 1.0 0.00 0.00 0.00 66 1020.4
20211026142229 41 67 0.0 1.0 0.00 0.00 0.00 66 1020.2
20211026141828 41 67 0.0 1.0 0.00 0.00 0.00 66 1020.0
20211026141427 40 67 0.0 1.0 0.00 0.00 0.00 66 1019.9
20211026141025 40 112 0.0 2.0 0.00 0.00 0.00 66 1019.9
20211026140624 41 157 0.0 1.0 0.00 0.00 0.00 66 1020.0
20211026140223 41 67 0.0 1.0 0.00 0.00 0.00 66 1019.9
20211026135821 41 270 0.0 1.0 0.00 0.00 0.00 66 1019.9
20211026135420 41 67 2.0 2.0 0.00 0.00 0.00 65 1019.8
20211026135019 40 67 1.0 2.0 0.00 0.00 0.00 65 1019.7
20211026134618 40 270 1.0 2.0 0.00 0.00 0.00 65 1019.9
20211026134216 41 307 0.0 2.0 0.00 0.00 0.00 65 1019.9
20211026133815 41 315 0.0 2.0 0.00 0.00 0.00 65 1019.8
20211026133414 41 292 1.0 2.0 0.00 0.00 0.00 65 1019.8
20211026133013 41 270 0.0 0.0 0.00 0.00 0.00 65 1019.9
20211026132612 41 112 0.0 0.0 0.00 0.00 0.00 65 1019.8
20211026132211 41 112 0.0 0.0 0.00 0.00 0.00 65 1019.8
20211026131810 41 112 0.0 1.0 0.00 0.00 0.00 65 1019.9
20211026131407 41 112 0.0 0.0 0.00 0.00 0.00 65 1019.8
20211026131006 41 112 0.0 0.0 0.00 0.00 0.00 65 1019.8
20211026130605 41 108 0.0 1.0 0.00 0.00 0.00 65 1019.7
20211026130204 41 112 1.0 1.0 0.00 0.00 0.00 65 1019.6
20211026125802 41 270 1.0 1.0 0.00 0.00 0.00 65 1019.6
20211026125401 41 112 0.0 2.0 0.00 0.00 0.00 65 1019.7
20211026125000 41 112 0.0 1.0 0.00 0.00 0.00 65 1019.6
20211026124157 41 112 0.0 1.0 0.00 0.00 0.00 65 1019.6
20211026123756 41 108 0.0 1.0 0.00 0.00 0.00 65 1019.5
20211026123355 41 279 0.0 1.0 0.00 0.00 0.00 65 1019.4
20211026122953 41 112 0.0 0.0 0.00 0.00 0.00 65 1019.4
20211026122552 41 112 0.0 1.0 0.00 0.00 0.00 65 1019.4
20211026122152 41 247 0.0 1.0 0.00 0.00 0.00 65 1019.3
20211026121750 41 112 0.0 0.0 0.00 0.00 0.00 65 1019.3
20211026121349 41 112 0.0 0.0 0.00 0.00 0.00 65 1019.4
20211026120947 42 112 0.0 0.0 0.00 0.00 0.00 65 1019.4
20211026120545 42 292 0.0 0.0 0.00 0.00 0.00 65 1019.3
20211026120144 42 112 0.0 1.0 0.00 0.00 0.00 65 1019.1
20211026115744 42 112 1.0 1.0 0.00 0.00 0.00 65 1019.2
20211026115342 42 112 0.0 1.0 0.00 0.00 0.00 65 1019.2
20211026114942 42 292 1.0 1.0 0.00 0.00 0.00 65 1019.0
20211026114539 42 112 0.0 0.0 0.00 0.00 0.00 65 1019.0
20211026113736 42 112 0.0 0.0 0.00 0.00 0.00 65 1019.0
20211026113335 42 112 0.0 0.0 0.00 0.00 0.00 65 1018.9
20211026112935 42 112 0.0 0.0 0.00 0.00 0.00 65 1018.9
20211026112533 42 112 0.0 0.0 0.00 0.00 0.00 65 1018.9
20211026112132 42 112 0.0 0.0 0.00 0.00 0.00 65 1018.7
20211026111730 42 112 0.0 0.0 0.00 0.00 0.00 65 1018.5
20211026111332 42 112 0.0 0.0 0.00 0.00 0.00 65 1018.4
20211026110928 42 112 0.0 0.0 0.00 0.00 0.00 65 1018.6
20211026110526 43 112 0.0 0.0 0.00 0.00 0.00 65 1018.6
20211026110127 43 67 0.0 0.0 0.00 0.00 0.00 65 1018.6
20211026105724 43 75 1.0 2.0 0.00 0.00 0.00 65 1018.6
20211026104520 43 67 1.0 2.0 0.00 0.00 0.00 65 1018.5
20211026104121 43 76 0.0 0.0 0.00 0.00 0.00 65 1018.4
20211026103718 43 92 1.0 1.0 0.00 0.00 0.00 65 1018.5
20211026103316 43 72 0.0 0.0 0.00 0.00 0.00 65 1018.4
20211026102915 43 112 0.0 0.0 0.00 0.00 0.00 65 1018.3
20211026102513 43 67 0.0 0.0 0.00 0.00 0.00 65 1018.3
20211026102112 43 22 1.0 1.0 0.00 0.00 0.00 65 1018.3
20211026101711 43 274 0.0 1.0 0.00 0.00 0.00 65 1018.3
20211026101310 43 67 0.0 0.0 0.00 0.00 0.00 65 1018.3
20211026100908 43 67 0.0 1.0 0.00 0.00 0.00 65 1018.3
20211026100507 43 90 0.0 0.0 0.00 0.00 0.00 65 1018.3
20211026100106 44 60 0.0 1.0 0.00 0.00 0.00 65 1018.2
20211026095705 44 74 0.0 0.0 0.00 0.00 0.00 65 1018.2
20211026095305 44 270 0.0 1.0 0.00 0.00 0.00 65 1018.2
20211026094902 44 67 0.0 1.0 0.00 0.00 0.00 65 1018.2
20211026094501 44 72 0.0 1.0 0.00 0.00 0.00 65 1018.2
20211026094059 44 90 0.0 1.0 0.00 0.00 0.00 65 1018.2
20211026093658 44 292 1.0 1.0 0.00 0.00 0.00 65 1018.1
20211026093257 44 90 0.0 1.0 0.00 0.00 0.00 65 1018.1
20211026092856 44 60 1.0 1.0 0.00 0.00 0.00 65 1018.1
20211026092455 44 337 0.0 0.0 0.00 0.00 0.00 65 1018.3
20211026092057 44 202 0.0 1.0 0.00 0.00 0.00 65 1018.3
20211026091651 44 180 0.0 1.0 0.00 0.00 0.00 65 1018.3
20211026091250 44 351 0.0 2.0 0.00 0.00 0.00 65 1018.3
20211026090849 45 263 0.0 1.0 0.00 0.00 0.00 65 1018.2
20211026090449 45 67 0.0 0.0 0.00 0.00 0.00 65 1018.1
20211026090047 45 24 1.0 2.0 0.00 0.00 0.00 65 1018.2
20211026085245 45 22 2.0 2.0 0.00 0.00 0.00 65 1018.1
20211026084844 45 76 0.0 1.0 0.00 0.00 0.00 65 1018.2
20211026084444 45 294 1.0 2.0 0.00 0.00 0.00 65 1018.1
20211026083238 45 312 0.0 2.0 0.00 0.00 0.00 65 1017.8
20211026082839 45 175 1.0 2.0 0.00 0.00 0.00 65 7017.8
20211026082836 45 175 1.0 2.0 0.00 0.00 0.00 65 1017.8
20211026082435 45 182 0.0 0.0 0.00 0.00 0.00 65 1017.8
20211026082034 46 180 0.0 0.0 0.00 0.00 0.00 65 1017.7
20211026081633 46 180 0.0 1.0 0.00 0.00 0.00 65 1017.6
20211026081232 46 180 0.0 1.0 0.00 0.00 0.00 65 1017.6
20211026080830 46 182 0.0 1.0 0.00 0.00 0.00 65 1017.6
20211026080429 46 180 0.0 0.0 0.00 0.00 0.00 65 1017.6
20211026080027 46 180 0.0 2.0 0.00 0.00 0.00 65 1017.4
20211026075225 46 317 1.0 2.0 0.00 0.00 0.00 65 1017.4
20211026074824 46 292 1.0 1.0 0.00 0.00 0.00 64 1017.3
20211026074422 46 180 1.0 1.0 0.00 0.00 0.00 64 1017.3
20211026074021 46 180 0.0 0.0 0.00 0.00 0.00 64 1017.3
20211026073811 46 180 0.0 0.0 0.00 0.00 0.00 64 1017.2
20211026073620 46 180 0.0 0.0 0.00 0.00 0.00 64 1017.2
20211026073219 46 180 0.0 0.0 0.00 0.00 0.00 64 1017.2
20211026072818 46 180 0.0 1.0 0.00 0.00 0.00 64 1017.1
20211026072416 47 180 1.0 1.0 0.00 0.00 0.00 65 1017.1
20211026072015 47 90 0.0 1.0 0.00 0.00 0.00 65 1017.2
20211026071616 47 180 0.0 1.0 0.00 0.00 0.00 64 1017.1
20211026070010 47 0 0.0 3.0 0.00 0.00 0.00 64 1017.0
20211026065607 47 0 3.0 3.0 0.00 0.00 0.00 64 1016.8
20211026065205 47 180 0.0 1.0 0.00 0.00 0.00 64 1016.8
20211026064804 48 180 0.0 0.0 0.00 0.00 0.00 65 1016.7
20211026064403 48 180 0.0 0.0 0.00 0.00 0.00 65 1016.7
20211026064002 48 180 0.0 1.0 0.00 0.00 0.00 65 1016.7
20211026063601 48 180 1.0 1.0 0.00 0.00 0.00 65 1016.7
20211026063159 48 180 0.0 0.0 0.00 0.00 0.00 65 1016.6
20211026062759 48 180 0.0 0.0 0.00 0.00 0.00 65 1016.6
20211026062357 49 315 0.0 0.0 0.00 0.00 0.00 65 1016.8
20211026061956 49 310 0.0 1.0 0.00 0.00 0.00 65 1016.8
20211026061555 49 281 1.0 2.0 0.00 0.00 0.00 65 1016.8
20211026061153 49 279 1.0 1.0 0.00 0.00 0.00 65 1016.7
20211026060752 49 279 1.0 2.0 0.00 0.00 0.00 65 1016.7
20211026060350 49 315 0.0 1.0 0.00 0.00 0.00 65 1016.8
20211026055949 49 283 1.0 3.0 0.00 0.00 0.00 65 1016.8
20211026055548 49 225 0.0 1.0 0.00 0.00 0.00 65 1016.7
20211026055148 49 283 0.0 2.0 0.00 0.00 0.00 65 1016.6
20211026054746 49 256 1.0 2.0 0.00 0.00 0.00 65 1016.6
20211026053943 49 0 2.0 3.0 0.00 0.00 0.00 65 1016.7
20211026053541 49 272 1.0 2.0 0.00 0.00 0.00 65 1016.5
20211026053140 49 229 1.0 2.0 0.00 0.00 0.00 65 1016.5
20211026052742 49 301 1.0 2.0 0.00 0.00 0.00 1016.5
20211026052739 49 301 1.0 2.0 0.00 0.00 0.00 65 1016.5
20211026052338 49 270 1.0 7.0 0.00 0.00 0.00 64 1016.4
20211026051937 49 229 5.0 5.0 0.00 0.00 0.00 64 1016.3
20211026051136 49 326 2.0 2.0 0.00 0.00 0.00 64 1016.2
20211026050733 49 191 3.0 4.0 0.00 0.00 0.00 64 1016.0
20211026050332 49 283 0.0 2.0 0.00 0.00 0.00 64 1015.9
20211026045529 49 135 2.0 2.0 0.00 0.00 0.00 64 1015.9
20211026045127 49 135 0.0 1.0 0.00 0.00 0.00 64 1015.9
20211026044726 50 135 1.0 1.0 0.00 0.00 0.00 64 1015.8
20211026044325 50 135 0.0 1.0 0.00 0.00 0.00 64 1015.8
20211026043924 50 247 0.0 3.0 0.00 0.00 0.00 64 1015.8
20211026043523 50 231 3.0 3.0 0.00 0.00 0.00 63 1015.7
20211026043121 50 346 0.0 2.0 0.00 0.00 0.00 63 1015.7
20211026042720 50 0 1.0 2.0 0.00 0.00 0.00 63 1015.6
20211026042318 50 353 1.0 3.0 0.00 0.00 0.00 63 1015.6
20211026041917 50 0 1.0 1.0 0.00 0.00 0.00 63 1015.5
20211026041516 51 247 0.0 0.0 0.00 0.00 0.00 63 1015.5
20211026041115 51 247 0.0 0.0 0.00 0.00 0.00 63 1015.5
20211026040713 51 247 0.0 0.0 0.00 0.00 0.00 63 1015.4
20211026040312 51 0 0.0 1.0 0.00 0.00 0.00 63 1015.3
20211026035913 51 315 1.0 1.0 0.00 0.00 0.00 63 1015.3
20211026035109 51 0 0.0 0.0 0.00 0.00 0.00 63 1015.3
20211026034708 52 0 0.0 1.0 0.00 0.00 0.00 63 1015.2
20211026034306 52 315 1.0 2.0 0.00 0.00 0.00 63 1015.2
20211026033503 52 211 1.0 1.0 0.00 0.00 0.00 63 1015.1
20211026032705 53 135 0.0 1.0 0.00 0.00 0.00 63 1015.2
20211026032300 53 90 0.0 1.0 0.00 0.00 0.00 63 1015.2
20211026031858 53 90 1.0 1.0 0.00 0.00 0.00 63 1015.1
20211026031457 53 87 1.0 2.0 0.00 0.00 0.00 63 1015.0
20211026031055 53 45 1.0 3.0 0.00 0.00 0.00 63 1015.0
20211026030655 54 279 1.0 3.0 0.00 0.00 0.00 63 1015.1
20211026030256 54 238 3.0 5.0 0.00 0.00 0.00 63 1014.9
20211026030253 54 238 3.0 5.0 0.00 0.00 0.00 63 1014.9
20211026025857 54 247 1.0 4.0 0.00 0.00 0.00 62 1015.0
20211026025053 54 211 3.0 3.0 0.00 0.00 0.00 62 1014.8
20211026024655 54 231 2.0 4.0 0.00 0.00 0.00 62 1014.9
20211026023846 55 234 1.0 3.0 0.00 0.00 0.00 62 1014.8
20211026023444 55 225 1.0 1.0 0.00 0.00 0.00 62 1014.9
20211026023043 55 225 0.0 1.0 0.00 0.00 0.00 62 1015.0
20211026022641 55 315 1.0 2.0 0.00 0.00 0.00 62 1014.8
20211026021843 55 38 1.0 1.0 0.00 0.00 0.00 62 1014.7
20211026021438 56 0 0.0 1.0 0.00 0.00 0.00 62 1014.5
20211026021037 56 45 0.0 3.0 0.00 0.00 0.00 62 1014.5
20211026020636 56 290 3.0 5.0 0.00 0.00 0.00 62 1014.4
20211026020234 56 288 2.0 3.0 0.00 0.00 0.00 62 1014.4
20211026015030 56 301 0.0 3.0 0.00 0.00 0.00 61 1014.2
20211026014227 57 247 2.0 5.0 0.00 0.00 0.00 61 1014.1
20211026013827 57 243 3.0 5.0 0.00 0.00 0.00 61 1014.1
20211026013425 57 222 4.0 7.0 0.00 0.00 0.00 60 1014.1
20211026013024 57 245 5.0 5.0 0.00 0.00 0.00 60 1014.1
20211026012223 57 265 4.0 7.0 0.00 0.00 0.00 60 1013.7
20211026011411 58 290 7.0 7.0 0.00 0.00 0.00 59 1013.6
20211026011010 58 272 4.0 7.0 0.00 0.00 0.00 59 1013.4
20211026010609 58 241 3.0 6.0 0.00 0.00 0.00 59 1013.4
20211026010208 58 243 5.0 7.0 0.00 0.00 0.00 59 1013.3
20211026005807 58 249 3.0 5.0 0.00 0.00 0.00 59 1013.3
20211026005006 58 245 4.0 7.0 0.00 0.00 0.00 59 1013.3
20211026004602 58 290 3.0 6.0 0.00 0.00 0.00 60 1013.2
20211026003359 59 258 3.0 7.0 0.00 0.00 0.00 60 1012.9
20211026002957 59 243 1.0 9.0 0.00 0.00 0.00 60 1012.9
20211026002629 59 245 4.0 9.0 0.00 0.00 0.00 60 1012.8
20211026002556 59 245 4.0 9.0 0.00 0.00 0.00 60 1012.8
20211026002155 59 240 5.0 11.0 0.00 0.00 0.00 61 1012.8
20211026001754 60 252 5.0 12.0 0.00 0.00 0.00 61 1012.9
20211026001352 60 247 7.0 12.0 0.00 0.00 0.00 61 1012.9
20211026000550 60 207 4.0 9.0 0.00 0.00 0.00 61 1013.0
20211025235747 59 326 3.0 8.0 0.00 0.00 0.00 61 1013.0
20211025235346 59 279 8.0 11.0 0.00 0.00 0.00 61 1012.9
20211025234945 59 279 7.0 8.0 0.00 0.00 0.00 61 1012.8
20211025234544 59 254 4.0 7.0 0.00 0.00 0.00 61 1012.9
20211025234142 59 263 2.0 4.0 0.00 0.00 0.00 61 1013.0
20211025233740 59 297 4.0 9.0 0.00 0.00 0.00 61 1013.2
20211025233339 59 267 2.0 6.0 0.00 0.00 0.00 61 1013.1
20211025232938 59 267 4.0 9.0 0.00 0.00 0.00 61 1013.0
20211025232137 59 229 4.0 7.0 0.00 0.00 0.00 61 1013.1
20211025231734 59 285 3.0 6.0 0.00 0.00 0.00 61 1013.1
20211025231333 59 270 5.0 6.0 0.00 0.00 0.00 61 1013.1
20211025230932 31 315 0.0 6.0 0.00 0.00 0.00 61 1012.9
20211025225728 59 240 2.0 4.0 0.00 0.00 0.00 61 1012.8
20211025225327 59 231 3.0 5.0 0.00 0.00 0.00 62 1012.8
20211025224925 59 234 1.0 4.0 0.00 0.00 0.00 62 1012.9
20211025224524 59 265 3.0 5.0 0.00 0.00 0.00 62 1012.9
20211025224123 59 310 1.0 4.0 0.00 0.00 0.00 62 1013.1
20211025223722 59 238 2.0 2.0 0.00 0.00 0.00 62 1013.0
20211025223321 59 270 0.0 2.0 0.00 0.00 0.00 62 1012.5
20211025222921 59 234 1.0 4.0 0.00 0.00 0.00 62 1012.6
20211025222159 59 267 4.0 6.0 0.00 0.00 0.00 62 1012.4
20211025222116 59 312 2.0 5.0 0.00 0.00 0.00 62 1012.5
20211025221719 59 3 4.0 6.0 0.00 0.00 0.00 62 1012.4
20211025221715 59 267 4.0 6.0 0.00 0.00 0.00 62 1012.4
20211025221314 59 249 3.0 5.0 0.00 0.00 0.00 63 1012.6
20211025220511 59 227 7.0 7.0 0.00 0.00 0.00 63 1012.9
20211025220141 59 225 2.0 9.0 0.00 0.00 0.00 63 1012.8
20211025220110 59 225 2.0 9.0 0.00 0.00 0.00 63 1012.8
20211025215937 59 288 1.0 7.0 0.00 0.00 0.00 64 1012.6
20211025215709 59 234 6.0 9.0 0.00 0.00 0.00 63 1012.8
20211025215307 59 288 1.0 7.0 0.00 0.00 0.00 64 1012.6
20211025214942 59 292 1.0 5.0 0.00 0.00 0.00 64 1012.6
20211025214906 59 292 1.0 5.0 0.00 0.00 0.00 64 1012.6
20211025214507 59 356 1.0 8.0 0.00 0.00 0.00 64 1012.7
20211025214032 58 288 4.0 6.0 0.00 0.00 0.00 64 1012.6
20211025213702 58 288 4.0 6.0 0.00 0.00 0.00 64 1012.6
20211025213301 58 237 4.0 6.0 0.00 0.00 0.00 64 1012.6
20211025212900 58 236 3.0 7.0 0.00 0.00 0.00 64 1012.7
20211025212058 58 225 3.0 9.0 0.00 0.00 0.00 63 1012.7
20211025211656 58 290 4.0 10.0 0.00 0.00 0.00 63 1012.8
20211025211257 58 247 8.0 10.0 0.00 0.00 0.00
20211025211254 58 247 8.0 10.0 0.00 0.00 0.00 63 1013.0
20211025210853 58 281 7.0 15.0 0.00 0.00 0.00 63 1012.9
20211025210452 58 257 2.0 8.0 0.00 0.00 0.00 62 1013.0
20211025210051 58 254 10.0 13.0 0.00 0.00 0.00 63 1013.2
20211025205650 58 252 10.0 10.0 0.00 0.00 0.00 63 1012.9
20211025205248 58 234 3.0 6.0 0.00 0.00 0.00 62 1012.9
20211025204847 58 247 6.0 8.0 0.00 0.00 0.00 62 1012.9
20211025204449 58 225 8.0 9.0 0.00 0.00 0.00 62 1012.9
20211025204044 58 234 6.0 7.0 0.00 0.00 0.00 62 1013.0
20211025203643 58 168 4.0 5.0 0.00 0.00 0.00 62 1013.1
20211025203242 58 199 3.0 9.0 0.00 0.00 0.00 62 1013.1
20211025202840 58 270 4.0 10.0 0.00 0.00 0.00 62 1013.2
20211025202439 58 254 10.0 11.0 0.00 0.00 0.00 61 1013.2
20211025202038 58 212 8.0 10.0 0.00 0.00 0.00 61 1013.2
20211025201637 58 306 6.0 14.0 0.00 0.00 0.00 61 1013.4
20211025201236 59 305 8.0 9.0 0.00 0.00 0.00 62 1013.5
20211025200834 59 324 4.0 12.0 0.00 0.00 0.00 62 1013.6
20211025200433 60 289 6.0 12.0 0.00 0.00 0.00 63 1013.5
20211025200031 60 195 10.0 19.0 0.00 0.00 0.00 62 1013.2
20211025195229 31 171 14.0 20.0 0.00 0.00 0.00 61 1012.9
20211025194828 61 157 6.0 11.0 0.00 0.00 0.00 61 1012.7
20211025194428 61 173 5.0 10.0 0.00 0.00 0.00 61 1012.9
20211025194412 60 164 8.0 20.0 0.00 0.00 0.00 61 1013.1
20211025194025 60 164 8.0 20.0 0.00 0.00 0.00 61 1013.1
20211025193624 61 171 6.0 14.0 0.00 0.00 0.00 61 1013.0
20211025192821 61 86 4.0 11.0 0.00 0.00 0.00 61 1013.3
20211025192456 60 168 5.0 12.0 0.00 0.00 0.00 61 1013.2
20211025192420 60 168 5.0 12.0 0.00 0.00 0.00 61 1013.2
20211025192019 60 160 3.0 15.0 0.00 0.00 0.00 61 1013.3
20211025191919 60 160 6.0 11.0 0.00 0.00 0.00 61 1013.3
20211025191617 60 160 6.0 11.0 0.00 0.00 0.00 61 1013.3
20211025191216 60 140 3.0 13.0 0.00 0.00 0.00 61 1013.4
20211025190815 60 122 6.0 13.0 0.00 0.00 0.00 61 1013.5
20211025190556 60 137 4.0 9.0 0.00 0.00 0.00 61 1013.5
20211025190414 60 137 4.0 9.0 0.00 0.00 0.00 61 1013.5
20211025185611 60 157 8.0 20.0 0.00 0.00 0.00 61 1013.6
20211025184958 60 171 7.0 20.0 0.00 0.00 0.00 61 1013.7
20211025184808 60 171 7.0 20.0 0.00 0.00 0.00 61 1013.7
20211025184407 60 162 9.0 16.0 0.00 0.00 0.00 61 1013.8
20211025184006 60 138 3.0 15.0 0.00 0.00 0.00 60 1013.8
20211025183950 60 155 7.0 15.0 0.00 0.00 0.00 60 1013.8
20211025183605 60 155 7.0 15.0 0.00 0.00 0.00 60 1013.8
20211025183204 60 94 3.0 8.0 0.00 0.00 0.00 60 1013.8
20211025182802 60 145 4.0 13.0 0.00 0.00 0.00 60 1013.9
20211025181959 60 102 5.0 15.0 0.00 0.00 0.00 60 1013.8
20211025181637 60 185 6.0 13.0 0.00 0.00 0.00 60 1013.9
20211025181558 60 185 6.0 13.0 0.00 0.00 0.00 60 1013.9
20211025181157 60 180 3.0 10.0 0.00 0.00 0.00 60 1013.9
20211025180831 59 120 9.0 13.0 0.00 0.00 0.00 60 1013.8
20211025180758 59 120 9.0 13.0 0.00 0.00 0.00 60 1013.8
20211025180354 59 140 7.0 11.0 0.00 0.00 0.00 60 1014.0
20211025175953 59 96 7.0 7.0 0.00 0.00 0.00 60 1014.1
20211025175740 59 117 5.0 10.0 0.00 0.00 0.00 60 1014.1
20211025175552 59 117 5.0 10.0 0.00 0.00 0.00 60 1014.1
20211025175150 59 146 6.0 16.0 0.00 0.00 0.00 60 1014.1
20211025174015 59 123 6.0 9.0 0.00 0.00 0.00 61 1014.4
20211025173545 59 123 6.0 9.0 0.00 0.00 0.00 61 1014.4
20211025173144 60 174 4.0 8.0 0.00 0.00 0.00 61 1014.4
20211025172743 60 175 4.0 10.0 0.00 0.00 0.00 61 1014.3
20211025172344 60 180 7.0 9.0 0.00 0.00 0.00 61
20211025171941 60 140 4.0 8.0 0.00 0.00 0.00 61 1014.3
20211025171541 60 96 2.0 7.0 0.00 0.00 0.00 1014.1
20211025171138 60 108 5.0 8.0 0.00 0.00 0.00 62 1014.2
20211025170736 59 90 3.0 7.0 0.00 0.00 0.00 62 1014.2
20211025170335 59 150 4.0 8.0 0.00 0.00 0.00 62 1014.3
20211025165935 59 146 4.0 16.0 0.00 0.00 0.00 62 1014.3
20211025165533 59 166 2.0 13.0 0.00 0.00 0.00 62 1014.2
20211025165131 59 129 2.0 11.0 0.00 0.00 0.00 61 1014.3
20211025164730 59 167 3.0 11.0 0.00 0.00 0.00 61 1014.3
20211025164329 58 164 3.0 16.0 0.00 0.00 0.00 61 1014.5
20211025163928 58 162 8.0 13.0 0.00 0.00 0.00 61 1014.4
20211025163526 58 171 3.0 10.0 0.00 0.00 0.00 61 1014.5
20211025163125 58 162 4.0 10.0 0.00 0.00 0.00 60 1014.5
20211025162322 58 153 6.0 11.0 0.00 0.00 0.00 60 1014.5
20211025161921 58 173 5.0 11.0 0.00 0.00 0.00 60 1014.4
20211025161520 58 146 5.0 13.0 0.00 0.00 0.00 60 1014.4
20211025161119 58 180 13.0 13.0 0.00 0.00 0.00 60 1014.2
20211025160718 58 87 2.0 4.0 0.00 0.00 0.00 60 1014.3
20211025160316 58 189 2.0 11.0 0.00 0.00 0.00 60 1014.4
20211025155915 58 95 2.0 8.0 0.00 0.00 0.00 60 1014.4
20211025155514 58 184 7.0 7.0 0.00 0.00 0.00 60 1014.4
20211025154712 58 107 6.0 12.0 0.00 0.00 0.00 60 1014.4
20211025154310 58 114 7.0 7.0 0.00 0.00 0.00 60 1014.2
20211025153908 58 130 4.0 7.0 0.00 0.00 0.00 60 1014.3
20211025153714 58 119 5.0 7.0 0.00 0.00 0.00 60 1014.3
20211025153506 58 144 3.0 6.0 0.00 0.00 0.00 60 1014.3
20211025153106 58 119 5.0 7.0 0.00 0.00 0.00 60 1014.3
20211025152910 58 108 3.0 7.0 0.00 0.00 0.00 60 1014.6
20211025152704 58 166 1.0 7.0 0.00 0.00 0.00 60 1014.4